TimeEDT,TemperatureF,Dew PointF,Humidity,Sea Level PressureIn,VisibilityMPH,Wind Direction,Wind SpeedMPH,Gust SpeedMPH,PrecipitationIn,Events,Conditions,WindDirDegrees,DateUTC
12:54 AM,48.2,44.6,87,30.34,10.0,Calm,Calm,-,N/A,,Clear,0,2012-10-14 04:54:00
1:34 AM,46.4,44.6,93,30.34,10.0,Calm,Calm,-,N/A,,Mostly Cloudy,0,2012-10-14 05:34:00
1:54 AM,48.0,45.0,89,30.31,10.0,South,3.5,-,N/A,,Overcast,170,2012-10-14 05:54:00
2:54 AM,50.0,46.0,86,30.30,10.0,SSE,4.6,-,N/A,,Overcast,160,2012-10-14 06:54:00
3:49 AM,50.0,46.4,87,30.30,10.0,SSE,5.8,-,N/A,,Overcast,150,2012-10-14 07:49:00
3:54 AM,50.0,46.0,86,30.27,10.0,SSE,4.6,-,N/A,,Overcast,150,2012-10-14 07:54:00
4:54 AM,50.0,46.9,89,30.24,10.0,SE,5.8,-,N/A,,Overcast,140,2012-10-14 08:54:00
5:54 AM,51.1,46.9,86,30.25,10.0,SE,4.6,-,N/A,,Overcast,130,2012-10-14 09:54:00
6:54 AM,53.1,48.0,83,30.27,10.0,Calm,Calm,-,N/A,,Overcast,0,2012-10-14 10:54:00
7:54 AM,54.0,46.9,77,-9999,10.0,SE,3.5,-,N/A,,Overcast,140,2012-10-14 11:54:00
8:54 AM,55.9,48.0,75,30.26,10.0,Calm,Calm,-,N/A,,Overcast,0,2012-10-14 12:54:00
9:33 AM,55.4,48.2,77,30.28,10.0,Calm,Calm,-,N/A,,Overcast,0,2012-10-14 13:33:00
9:54 AM,55.9,50.0,80,30.25,10.0,Calm,Calm,-,N/A,,Overcast,0,2012-10-14 13:54:00
10:54 AM,57.9,50.0,75,30.25,10.0,SE,3.5,-,N/A,,Overcast,130,2012-10-14 14:54:00
11:54 AM,59.0,51.1,75,30.25,10.0,SE,5.8,-,N/A,,Overcast,140,2012-10-14 15:54:00
12:54 PM,61.0,53.1,75,30.24,10.0,South,8.1,-,N/A,,Overcast,190,2012-10-14 16:54:00
1:54 PM,60.1,54.0,80,30.21,10.0,SE,5.8,-,0.00,,Overcast,140,2012-10-14 17:54:00
2:54 PM,63.0,57.9,84,30.16,10.0,South,12.7,19.6,N/A,,Overcast,190,2012-10-14 18:54:00
3:37 PM,64.4,57.2,77,30.17,10.0,South,9.2,-,N/A,,Scattered Clouds,190,2012-10-14 19:37:00
3:54 PM,64.9,57.9,78,30.13,10.0,SSW,6.9,-,N/A,,Scattered Clouds,210,2012-10-14 19:54:00
4:54 PM,66.0,57.0,73,30.11,10.0,South,10.4,19.6,N/A,,Partly Cloudy,190,2012-10-14 20:54:00
5:54 PM,64.9,57.0,75,30.09,10.0,SSW,12.7,21.9,N/A,,Clear,200,2012-10-14 21:54:00
6:54 PM,63.0,55.9,78,30.08,10.0,South,9.2,-,N/A,,Partly Cloudy,180,2012-10-14 22:54:00
7:54 PM,61.0,55.9,83,30.06,10.0,South,9.2,-,N/A,,Clear,180,2012-10-14 23:54:00
8:54 PM,61.0,55.9,83,30.05,10.0,SSE,6.9,-,N/A,,Partly Cloudy,160,2012-10-15 00:54:00
9:54 PM,62.1,57.0,84,30.06,10.0,SE,3.5,-,N/A,,Scattered Clouds,140,2012-10-15 01:54:00
10:05 PM,62.6,57.2,82,30.10,10.0,SSE,3.5,-,N/A,,Mostly Cloudy,150,2012-10-15 02:05:00
10:54 PM,62.1,57.9,86,30.05,10.0,Calm,Calm,-,N/A,,Overcast,0,2012-10-15 02:54:00
11:01 PM,62.6,57.2,82,30.09,10.0,SSE,6.9,-,N/A,,Overcast,160,2012-10-15 03:01:00
11:54 PM,63.0,57.9,84,30.02,10.0,SSE,5.8,-,N/A,,Overcast,160,2012-10-15 03:54:00